Regional Weather Roundup
Issued by NWS Green Bay, WI

Home | Current Version | Previous Version | Graphics & Text | Print | Product List | Glossary Off
Versions: 1 2 3 4 5 6 7 8 9 10 11 12 13 14 15 16 17 18 19 20 21 22 23 24 25 26 27 28 29 30 31 32 33 34 35 36 37 38 39 40 41 42 43 44 45 46 47 48 49 50

000
ASUS43 KGRB 200100
RWRGRB

NORTH-CENTRAL AND NORTHEAST WISCONSIN REGIONAL WEATHER ROUNDUP
NATIONAL WEATHER SERVICE GREEN BAY WI
800 PM CDT SAT MAY 19 2018

WIZ005-009-010>012-018-019-200200-
NORTH CENTRAL WISCONSIN

CITY           SKY/WX    TMP DP  RH WIND       PRES   REMARKS
IRONWOOD       MOCLDY    45  36  70 E10       30.14R
MANITOWISH WTR CLOUDY    42  39  87 N14       30.10R
ARBOR VITAE    CLOUDY    43  38  84 N8G21     30.09R
EAGLE RIVER    CLOUDY    40  39  96 N13G18    30.08R
LAND O LAKES   NOT AVBL
RHINELANDER    CLOUDY    44  40  85 NE12G18   30.07R
PHILLIPS       CLOUDY    44  38  78 NE15G25   30.08R
ANTIGO         CLOUDY    46  41  81 N16G23    30.03R
TOMAHAWK       CLOUDY    43  38  82 N12G23    30.08R
MERRILL        CLOUDY    46  41  82 N16G22    30.05R
$$

WIZ013-073-200200-
NORTHEAST WISCONSIN

CITY           SKY/WX    TMP DP  RH WIND       PRES   REMARKS
IRON MOUNTAIN  CLOUDY    45  39  79 N15G28    30.05R
MARINETTE      NOT AVBL
$$

WIZ017-030-035>037-045-200200-
CENTRAL WISCONSIN

CITY           SKY/WX    TMP DP  RH WIND       PRES   REMARKS
MEDFORD        NOT AVBL
WAUSAU         CLOUDY    51  42  71 N12G18    30.00R
MOSINEE        CLOUDY    54  45  71 N13G24    30.01R
MARSHFIELD     CLOUDY    52  43  71 NE17G28   29.99R
WISC RAPIDS    FAIR      61  46  57 N21       29.97R
STEVENS POINT  NOT AVBL
WAUPACA        CLOUDY    71  58  64 N14G21    29.93R
SHAWANO        CLOUDY    63  46  54 N18       29.97R
CLINTONVILLE   CLOUDY    64  53  66 NE9       29.95R
WAUTOMA        CLOUDY    75  56  51 N16G24    29.89R
$$

WIZ038-039-048-051-200200-
FOX VALLEY

CITY           SKY/WX    TMP DP  RH WIND       PRES   REMARKS
NWS GREEN BAY  MOCLDY    58  52  80 NE10      29.96R
APPLETON       MOCLDY    66  54  63 NE9       29.90R
OSHKOSH        CLOUDY    66  59  78 E13G21    29.90R
FOND DU LAC    FAIR      69  57  65 SE9       29.90R
$$

WIZ022-050-052-200200-
EAST CENTRAL WISCONSIN

CITY           SKY/WX    TMP DP  RH WIND       PRES   REMARKS
EPHRAIM        NOT AVBL
WASHINGTON ISL NOT AVBL
STURGEON BAY   CLOUDY    54  45  71 N9        29.99R
MANITOWOC      FAIR      51  48  89 NE5       29.96R
SHEBOYGAN      MOCLDY    52  50  93 NE8       29.94R
$$

LMZ563-521-522-541>543-200200-
LAKESHORE

STATION/POSITION TIME  TEMP    WIND        PRES    VSBY  WAVE
                       AIR SEA DIR/SP/G                  HT/PER
                 (UTC) (F)     (DEG/KT/KT) (MB)    (MI)  (FT/S)
SHEBOYGAN LKSHOR 0000   47      80/  3/  4 1013.3R
KEWAUNEE LKSHORE 0030   46      30/  6/  9 1014.0R
NORTHPORT PIER   0040   46                 1015.6R
SISTER BAY LKSHO 0027   50     350/ 19/ 25   N/A
MENOMINEE LKSHOR 0030   49      40/ 10/ 12 1014.6R
$$




USA.gov is the U.S. government's official web portal to all federal, state and local government web resources and services.